NSZ3195 ESSA-EKCH

Flight info

Callsign NSZ3195
Flight time 0h 59m
Altitude 38000
Route PETEV N872 ERNOV
Aircraft B738/M-SDE2E3FGHIRWXY/LB1

Departure

Time 2026-04-24 08:08
Airport Stockholm-Arlanda Airport (ESSA)

Arrival

Time 2026-04-24 09:07
Airport Copenhagen Kastrup Airport (EKCH)
Time Latitude Longitude Altitude Speed Heading
2026-04-24 07:47 59.65284 17.92931 116 ft 0 kts 68°
2026-04-24 07:53 59.65279 17.92908 113 ft 4 kts 64°
2026-04-24 07:54 59.65266 17.92863 112 ft 4 kts 50°
2026-04-24 07:54 59.65247 17.92830 114 ft 4 kts 19°
2026-04-24 07:54 59.65228 17.92828 114 ft 1 kts 333°
2026-04-24 07:54 59.65224 17.92832 114 ft 0 kts 333°
2026-04-24 07:55 59.65244 17.92812 112 ft 0 kts 333°
2026-04-24 07:55 59.65276 17.92781 116 ft 0 kts 333°
2026-04-24 07:56 59.65313 17.92744 117 ft 0 kts 333°
2026-04-24 08:03 59.65323 17.92734 132 ft 5 kts 334°
2026-04-24 08:03 59.65379 17.92680 115 ft 13 kts 334°
2026-04-24 08:04 59.65480 17.92594 117 ft 18 kts 351°
2026-04-24 08:04 59.65541 17.92688 116 ft 11 kts 74°
2026-04-24 08:04 59.65566 17.92888 115 ft 19 kts 76°
2026-04-24 08:04 59.65605 17.93189 112 ft 26 kts 75°
2026-04-24 08:05 59.65712 17.93466 113 ft 11 kts 46°
2026-04-24 08:05 59.65723 17.93490 115 ft 0 kts 45°
2026-04-24 08:06 59.65727 17.93497 115 ft 4 kts 45°
2026-04-24 08:06 59.65779 17.93606 114 ft 17 kts 47°
2026-04-24 08:07 59.65859 17.93777 113 ft 14 kts 63°
2026-04-24 08:07 59.65874 17.93867 116 ft 2 kts 75°
2026-04-24 08:07 59.65893 17.94003 115 ft 25 kts 75°
2026-04-24 08:07 59.66011 17.94912 118 ft 109 kts 76°
2026-04-24 08:08 59.66275 17.96754 367 ft 156 kts 70°
2026-04-24 08:08 59.66564 17.98936 1213 ft 165 kts 71°
2026-04-24 08:08 59.66832 18.01056 2414 ft 160 kts 71°
2026-04-24 08:09 59.67918 18.05528 3449 ft 197 kts 27°
2026-04-24 08:09 59.69245 18.06140 4173 ft 199 kts
2026-04-24 08:09 59.70625 18.06460 4760 ft 199 kts
2026-04-24 08:09 59.72008 18.06658 4954 ft 202 kts 354°
2026-04-24 08:10 59.73424 18.05672 4990 ft 238 kts 328°
2026-04-24 08:10 59.74530 18.03087 5008 ft 255 kts 297°
2026-04-24 08:10 59.74830 17.99536 5495 ft 272 kts 268°
2026-04-24 08:10 59.74240 17.95919 6531 ft 283 kts 243°
2026-04-24 08:11 59.72981 17.92875 7554 ft 288 kts 229°
2026-04-24 08:11 59.71478 17.90133 8537 ft 292 kts 225°
2026-04-24 08:11 59.69922 17.87472 9470 ft 297 kts 225°
2026-04-24 08:11 59.68348 17.84793 10330 ft 303 kts 225°
2026-04-24 08:12 59.66699 17.81947 10650 ft 328 kts 226°
2026-04-24 08:12 59.64922 17.78840 11039 ft 347 kts 226°
2026-04-24 08:12 59.63097 17.75634 11794 ft 353 kts 226°
2026-04-24 08:12 59.61254 17.72382 12671 ft 356 kts 226°
2026-04-24 08:13 59.59399 17.69101 13543 ft 360 kts 227°
2026-04-24 08:13 59.57527 17.65780 14317 ft 364 kts 227°
2026-04-24 08:13 59.55649 17.62448 15085 ft 367 kts 227°
2026-04-24 08:13 59.53732 17.59046 15882 ft 369 kts 227°
2026-04-24 08:14 59.51810 17.55639 16640 ft 373 kts 227°
2026-04-24 08:14 59.49868 17.52199 17400 ft 376 kts 227°
2026-04-24 08:14 59.47885 17.48693 18166 ft 380 kts 227°
2026-04-24 08:14 59.45911 17.45208 18815 ft 383 kts 227°
2026-04-24 08:15 59.43919 17.41699 19477 ft 386 kts 227°
2026-04-24 08:15 59.41935 17.38210 20126 ft 388 kts 227°
2026-04-24 08:15 59.39890 17.34617 20768 ft 391 kts 227°
2026-04-24 08:15 59.37879 17.31092 21380 ft 394 kts 227°
2026-04-24 08:16 59.35818 17.27484 22002 ft 397 kts 227°
2026-04-24 08:16 59.33755 17.23877 22594 ft 400 kts 227°
2026-04-24 08:16 59.31656 17.20215 23189 ft 404 kts 227°
2026-04-24 08:16 59.29548 17.16543 23726 ft 407 kts 227°
2026-04-24 08:17 59.27422 17.12848 24219 ft 410 kts 227°
2026-04-24 08:17 59.25279 17.09126 24702 ft 412 kts 226°
2026-04-24 08:17 59.23126 17.05395 25180 ft 415 kts 226°
2026-04-24 08:17 59.20955 17.01640 25641 ft 418 kts 226°
2026-04-24 08:18 59.18746 16.97911 26094 ft 421 kts 225°
2026-04-24 08:18 59.16484 16.94216 26537 ft 425 kts 224°
2026-04-24 08:18 59.14231 16.90580 26967 ft 427 kts 224°
2026-04-24 08:18 59.11907 16.86839 27405 ft 430 kts 224°
2026-04-24 08:19 59.09596 16.83115 27829 ft 432 kts 224°
2026-04-24 08:19 59.07304 16.79416 28222 ft 435 kts 224°
2026-04-24 08:19 59.04874 16.75493 28630 ft 437 kts 224°
2026-04-24 08:19 59.02556 16.71753 29021 ft 440 kts 224°
2026-04-24 08:20 59.00168 16.67906 29415 ft 442 kts 224°
2026-04-24 08:20 58.97794 16.64088 29781 ft 445 kts 224°
2026-04-24 08:20 58.95408 16.60255 30127 ft 447 kts 224°
2026-04-24 08:20 58.93006 16.56406 30425 ft 449 kts 224°
2026-04-24 08:21 58.90590 16.52545 30718 ft 451 kts 224°
2026-04-24 08:21 58.88160 16.48683 31009 ft 453 kts 224°
2026-04-24 08:21 58.85722 16.44832 31295 ft 455 kts 224°
2026-04-24 08:21 58.83265 16.40963 31617 ft 455 kts 224°
2026-04-24 08:22 58.80815 16.37110 32034 ft 453 kts 224°
2026-04-24 08:22 58.78373 16.33273 32465 ft 451 kts 224°
2026-04-24 08:22 58.75941 16.29454 32851 ft 450 kts 224°
2026-04-24 08:22 58.73510 16.25646 33212 ft 450 kts 224°
2026-04-24 08:23 58.71088 16.21853 33593 ft 449 kts 225°
2026-04-24 08:23 58.68662 16.18053 33979 ft 447 kts 225°
2026-04-24 08:23 58.66254 16.14284 34292 ft 447 kts 225°
2026-04-24 08:23 58.63839 16.10508 34552 ft 447 kts 225°
2026-04-24 08:24 58.61452 16.06782 34805 ft 447 kts 225°
2026-04-24 08:24 58.59031 16.03010 35085 ft 447 kts 224°
2026-04-24 08:24 58.56586 15.99209 35363 ft 447 kts 224°
2026-04-24 08:24 58.54173 15.95465 35641 ft 446 kts 224°
2026-04-24 08:25 58.51759 15.91726 35909 ft 446 kts 224°
2026-04-24 08:25 58.49378 15.88044 36168 ft 446 kts 224°
2026-04-24 08:25 58.46934 15.84271 36436 ft 445 kts 224°
2026-04-24 08:25 58.44546 15.80590 36697 ft 445 kts 224°
2026-04-24 08:26 58.42139 15.76887 36953 ft 445 kts 224°
2026-04-24 08:26 58.39727 15.73185 37213 ft 444 kts 224°
2026-04-24 08:26 58.37319 15.69490 37477 ft 444 kts 223°
2026-04-24 08:26 58.34906 15.65787 37726 ft 443 kts 223°
2026-04-24 08:27 58.32501 15.62100 37964 ft 443 kts 223°
2026-04-24 08:27 58.27672 15.54710 38018 ft 446 kts 223°
2026-04-24 08:28 58.22892 15.47428 38017 ft 441 kts 223°
2026-04-24 08:28 58.18112 15.40172 38026 ft 438 kts 223°
2026-04-24 08:29 58.13369 15.32989 38037 ft 435 kts 223°
2026-04-24 08:29 58.08643 15.25866 38050 ft 434 kts 223°
2026-04-24 08:30 58.03905 15.18785 38049 ft 434 kts 223°
2026-04-24 08:30 57.99154 15.11717 38061 ft 436 kts 223°
2026-04-24 08:31 57.94373 15.04622 38055 ft 438 kts 223°
2026-04-24 08:31 57.89565 14.97509 38053 ft 441 kts 223°
2026-04-24 08:32 57.85545 14.91579 38056 ft 442 kts 223°
2026-04-24 08:32 57.80679 14.84425 38055 ft 445 kts 223°
2026-04-24 08:33 57.75795 14.77272 38054 ft 446 kts 222°
2026-04-24 08:33 57.70901 14.70129 38060 ft 446 kts 223°
2026-04-24 08:34 57.65993 14.62991 38057 ft 446 kts 223°
2026-04-24 08:34 57.61087 14.55880 38056 ft 446 kts 223°
2026-04-24 08:34 57.58628 14.52324 37715 ft 450 kts 223°
2026-04-24 08:35 57.56144 14.48737 37098 ft 449 kts 223°
2026-04-24 08:35 57.53711 14.45236 36502 ft 447 kts 223°
2026-04-24 08:35 57.51259 14.41713 35921 ft 443 kts 223°
2026-04-24 08:35 57.48828 14.38228 35370 ft 439 kts 224°
2026-04-24 08:36 57.46419 14.34777 34841 ft 436 kts 224°
2026-04-24 08:36 57.44021 14.31347 34298 ft 435 kts 224°
2026-04-24 08:36 57.41626 14.27923 33979 ft 437 kts 224°
2026-04-24 08:36 57.39197 14.24448 33323 ft 440 kts 224°
2026-04-24 08:37 57.36784 14.21014 32726 ft 435 kts 224°
2026-04-24 08:37 57.34390 14.17615 32152 ft 433 kts 223°
2026-04-24 08:37 57.32003 14.14232 31584 ft 430 kts 223°
2026-04-24 08:37 57.29632 14.10874 31027 ft 426 kts 223°
2026-04-24 08:38 57.27295 14.07570 30492 ft 423 kts 223°
2026-04-24 08:38 57.24948 14.04255 29920 ft 425 kts 223°
2026-04-24 08:38 57.22595 14.00931 29314 ft 429 kts 223°
2026-04-24 08:38 57.20206 13.97564 28709 ft 434 kts 223°
2026-04-24 08:39 57.17795 13.94175 28114 ft 436 kts 222°
2026-04-24 08:39 57.15378 13.90789 27533 ft 436 kts 222°
2026-04-24 08:39 57.12956 13.87404 26955 ft 437 kts 222°
2026-04-24 08:39 57.10532 13.84024 26404 ft 437 kts 221°
2026-04-24 08:40 57.08102 13.80640 25841 ft 437 kts 221°
2026-04-24 08:40 57.05708 13.77312 25322 ft 438 kts 221°
2026-04-24 08:40 57.03278 13.73937 24791 ft 438 kts 221°
2026-04-24 08:40 57.00852 13.70572 24277 ft 437 kts 221°
2026-04-24 08:41 56.98429 13.67219 23765 ft 432 kts 221°
2026-04-24 08:41 56.96044 13.63927 23174 ft 426 kts 220°
2026-04-24 08:41 56.93685 13.60674 22580 ft 421 kts 221°
2026-04-24 08:41 56.91356 13.57467 21989 ft 416 kts 221°
2026-04-24 08:42 56.89058 13.54306 21414 ft 412 kts 221°
2026-04-24 08:42 56.86771 13.51163 20849 ft 409 kts 221°
2026-04-24 08:42 56.84506 13.48054 20308 ft 407 kts 221°
2026-04-24 08:42 56.82247 13.44959 19795 ft 404 kts 221°
2026-04-24 08:43 56.80008 13.41897 19323 ft 402 kts 221°
2026-04-24 08:43 56.77774 13.38844 18882 ft 398 kts 221°
2026-04-24 08:43 56.75568 13.35836 18473 ft 395 kts 221°
2026-04-24 08:43 56.73368 13.32848 18007 ft 392 kts 221°
2026-04-24 08:44 56.71187 13.29885 17528 ft 390 kts 220°
2026-04-24 08:44 56.69019 13.26949 17061 ft 387 kts 220°
2026-04-24 08:44 56.66865 13.24035 16602 ft 386 kts 220°
2026-04-24 08:44 56.64702 13.21115 16148 ft 388 kts 220°
2026-04-24 08:45 56.62531 13.18185 15699 ft 389 kts 220°
2026-04-24 08:45 56.60357 13.15251 15259 ft 387 kts 220°
2026-04-24 08:45 56.58198 13.12340 14828 ft 386 kts 220°
2026-04-24 08:45 56.56051 13.09449 14397 ft 384 kts 220°
2026-04-24 08:46 56.53905 13.06562 13970 ft 383 kts 220°
2026-04-24 08:46 56.51765 13.03686 13504 ft 382 kts 220°
2026-04-24 08:46 56.49632 13.00823 13043 ft 381 kts 220°
2026-04-24 08:46 56.47527 12.98002 12559 ft 380 kts 219°
2026-04-24 08:47 56.45407 12.95165 12107 ft 378 kts 219°
2026-04-24 08:47 56.43297 12.92345 11655 ft 376 kts 219°
2026-04-24 08:47 56.41194 12.89540 11214 ft 374 kts 219°
2026-04-24 08:47 56.39076 12.86719 10764 ft 372 kts 219°
2026-04-24 08:48 56.37026 12.83993 10331 ft 367 kts 219°
2026-04-24 08:48 56.34987 12.81285 10101 ft 361 kts 219°
2026-04-24 08:48 56.32944 12.78572 10062 ft 365 kts 219°
2026-04-24 08:48 56.30909 12.75874 10056 ft 361 kts 219°
2026-04-24 08:49 56.28883 12.73190 10051 ft 362 kts 219°
2026-04-24 08:49 56.26864 12.70523 10042 ft 356 kts 219°
2026-04-24 08:49 56.24910 12.67946 10030 ft 340 kts 219°
2026-04-24 08:49 56.23049 12.65493 10038 ft 324 kts 219°
2026-04-24 08:50 56.21266 12.63148 10031 ft 310 kts 219°
2026-04-24 08:50 56.19566 12.60915 10043 ft 296 kts 219°
2026-04-24 08:50 56.17912 12.58765 10045 ft 294 kts 216°
2026-04-24 08:50 56.15972 12.57420 10071 ft 307 kts 189°
2026-04-24 08:51 56.13821 12.57259 10078 ft 313 kts 181°
2026-04-24 08:51 56.11681 12.57301 10065 ft 308 kts 180°
2026-04-24 08:51 56.09541 12.57370 10060 ft 301 kts 180°
2026-04-24 08:51 56.07448 12.57430 10062 ft 300 kts 180°
2026-04-24 08:52 56.05357 12.57475 10078 ft 301 kts 180°
2026-04-24 08:52 56.03303 12.57510 10076 ft 297 kts 180°
2026-04-24 08:52 56.01276 12.57538 10060 ft 285 kts 180°
2026-04-24 08:52 55.99332 12.57560 10052 ft 274 kts 180°
2026-04-24 08:53 55.97469 12.57580 10058 ft 261 kts 181°
2026-04-24 08:53 55.95687 12.57597 10061 ft 252 kts 181°
2026-04-24 08:53 55.93936 12.57612 10071 ft 251 kts 181°
2026-04-24 08:53 55.92162 12.57627 10092 ft 258 kts 181°
2026-04-24 08:54 55.90355 12.57643 10090 ft 262 kts 181°
2026-04-24 08:54 55.88534 12.57660 10082 ft 261 kts 181°
2026-04-24 08:54 55.86732 12.57493 9928 ft 258 kts 196°
2026-04-24 08:54 55.85035 12.56493 9612 ft 258 kts 203°
2026-04-24 08:55 55.83318 12.55333 8993 ft 273 kts 204°
2026-04-24 08:55 55.81495 12.54101 8325 ft 290 kts 203°
2026-04-24 08:55 55.79599 12.52840 8006 ft 291 kts 203°
2026-04-24 08:55 55.77709 12.51597 7758 ft 289 kts 203°
2026-04-24 08:56 55.75822 12.50368 7518 ft 287 kts 203°
2026-04-24 08:56 55.73951 12.49155 7249 ft 286 kts 203°
2026-04-24 08:56 55.72081 12.47945 6978 ft 285 kts 203°
2026-04-24 08:56 55.70220 12.46744 6713 ft 284 kts 203°
2026-04-24 08:57 55.68372 12.45554 6472 ft 282 kts 203°
2026-04-24 08:57 55.66547 12.44380 6216 ft 281 kts 203°
2026-04-24 08:57 55.64702 12.43195 5997 ft 277 kts 203°
2026-04-24 08:57 55.62908 12.42043 5746 ft 277 kts 203°
2026-04-24 08:58 55.61099 12.40884 5474 ft 277 kts 203°
2026-04-24 08:58 55.59381 12.39341 5030 ft 276 kts 223°
2026-04-24 08:58 55.57941 12.37122 4665 ft 275 kts 226°
2026-04-24 08:58 55.56553 12.34928 4622 ft 263 kts 226°
2026-04-24 08:59 55.55184 12.32785 4478 ft 257 kts 226°
2026-04-24 08:59 55.53831 12.30686 4371 ft 257 kts 225°
2026-04-24 08:59 55.52485 12.28616 4246 ft 253 kts 225°
2026-04-24 08:59 55.51161 12.26590 3958 ft 253 kts 225°
2026-04-24 09:00 55.49822 12.24539 3587 ft 257 kts 225°
2026-04-24 09:00 55.48586 12.22275 3202 ft 256 kts 236°
2026-04-24 09:00 55.47321 12.20086 3004 ft 256 kts 212°
2026-04-24 09:00 55.45620 12.19241 3012 ft 260 kts 182°
2026-04-24 09:01 55.43867 12.19961 2999 ft 260 kts 150°
2026-04-24 09:01 55.42487 12.21881 3083 ft 256 kts 135°
2026-04-24 09:01 55.41171 12.24067 3006 ft 253 kts 128°
2026-04-24 09:01 55.40447 12.26763 2998 ft 239 kts 91°
2026-04-24 09:02 55.40793 12.29553 2952 ft 237 kts 54°
2026-04-24 09:02 55.41962 12.31498 2855 ft 231 kts 34°
2026-04-24 09:02 55.43056 12.33589 2763 ft 233 kts 48°
2026-04-24 09:02 55.44028 12.35890 2655 ft 233 kts 50°
2026-04-24 09:03 55.45008 12.38170 2542 ft 232 kts 45°
2026-04-24 09:03 55.46159 12.40133 2321 ft 229 kts 38°
2026-04-24 09:03 55.47360 12.41961 2093 ft 228 kts 37°
2026-04-24 09:03 55.48509 12.43725 2035 ft 208 kts 37°
2026-04-24 09:04 55.49537 12.45325 1990 ft 187 kts 37°
2026-04-24 09:04 55.50460 12.46761 1979 ft 167 kts 37°
2026-04-24 09:04 55.51297 12.48060 1985 ft 155 kts 36°
2026-04-24 09:04 55.52110 12.49318 1897 ft 156 kts 36°
2026-04-24 09:05 55.52907 12.50556 1697 ft 150 kts 36°
2026-04-24 09:05 55.53662 12.51730 1491 ft 139 kts 36°
2026-04-24 09:05 55.54136 12.52466 1382 ft 137 kts 36°
2026-04-24 09:05 55.54852 12.53574 1199 ft 137 kts 37°
2026-04-24 09:06 55.55809 12.55060 945 ft 138 kts 35°
2026-04-24 09:06 55.56534 12.56149 747 ft 139 kts 38°
2026-04-24 09:06 55.57019 12.56946 603 ft 143 kts 36°
2026-04-24 09:06 55.57781 12.58078 464 ft 145 kts 40°
2026-04-24 09:07 55.58536 12.59289 269 ft 147 kts 39°
2026-04-24 09:07 55.59293 12.60482 85 ft 147 kts 37°
2026-04-24 09:07 55.60499 12.62303 22 ft 22 kts 12°
2026-04-24 09:08 55.60640 12.62346 27 ft 15 kts
2026-04-24 09:08 55.60645 12.62347 27 ft 0 kts 11°
2026-04-24 09:09 55.60672 12.62357 27 ft 11 kts 11°
2026-04-24 09:09 55.60794 12.62420 24 ft 25 kts 28°
2026-04-24 09:09 55.60959 12.62657 22 ft 31 kts 40°
2026-04-24 09:10 55.61118 12.62903 24 ft 29 kts 41°
2026-04-24 09:10 55.61269 12.63137 27 ft 26 kts 41°
2026-04-24 09:10 55.61415 12.63365 25 ft 30 kts 41°
2026-04-24 09:10 55.61576 12.63613 24 ft 26 kts 41°
2026-04-24 09:11 55.61719 12.63833 29 ft 28 kts 42°
2026-04-24 09:11 55.61867 12.64061 27 ft 29 kts 36°
2026-04-24 09:11 55.62031 12.64205 21 ft 11 kts 26°
2026-04-24 09:11 55.62114 12.64275 19 ft 16 kts 25°
2026-04-24 09:12 55.62229 12.64368 16 ft 20 kts 24°
2026-04-24 09:12 55.62361 12.64435 18 ft 20 kts 16°
2026-04-24 09:12 55.62494 12.64459 20 ft 14 kts 329°
2026-04-24 09:12 55.62537 12.64367 21 ft 7 kts 302°
2026-04-24 09:13 55.62569 12.64279 22 ft 10 kts 302°
2026-04-24 09:13 55.62592 12.64214 21 ft 2 kts 303°
2026-04-24 09:13 55.62606 12.64177 24 ft 5 kts 303°
2026-04-24 09:13 55.62639 12.64120 22 ft 8 kts 344°
2026-04-24 09:14 55.62656 12.64120 22 ft 1 kts 22°
2026-04-24 09:14 55.62681 12.64145 23 ft 1 kts 33°
2026-04-24 09:14 55.62702 12.64169 23 ft 0 kts 33°